| time (UTC) | temp F | wind direction | speed MPH | gust MPH | rain 1hr in | rain 24hr in | rain mn in | humidity % | barometer mb |
| 20260510043349 | 46 | 265 | 1.0 | 4.0 | 0.00 | 0.00 | 0.00 | 90 | 1012.6 |
| 20260510042830 | 45 | 266 | 0.0 | 0.0 | 0.00 | 0.00 | 0.00 | 90 | 1012.6 |
| 20260510042313 | 45 | 285 | 0.0 | 0.0 | 0.00 | 0.00 | 0.00 | 89 | 1012.7 |
| 20260510041815 | 46 | 264 | 0.0 | 0.0 | 0.00 | 0.00 | 0.00 | 88 | 1012.7 |
| 20260510041318 | 47 | 264 | 0.0 | 0.0 | 0.00 | 0.00 | 0.00 | 87 | 1012.7 |
| 20260510040821 | 47 | 264 | 0.0 | 2.0 | 0.00 | 0.00 | 0.00 | 87 | 1012.6 |
| 20260510040341 | 47 | 291 | 1.0 | 3.0 | 0.00 | 0.00 | 0.00 | 87 | 1012.6 |
| 20260510035833 | 47 | 277 | 1.0 | 3.0 | 0.00 | 0.00 | 0.00 | 87 | 1012.4 |
| 20260510035313 | 47 | 266 | 0.0 | 0.0 | 0.00 | 0.00 | 0.00 | 87 | 1012.4 |
| 20260510034835 | 47 | 261 | 0.0 | 0.0 | 0.00 | 0.00 | 0.00 | 87 | 1012.4 |
| 20260510033850 | 48 | 274 | 0.0 | 0.0 | 0.00 | 0.00 | 0.00 | 86 | 1012.5 |
| 20260510033311 | 48 | 288 | 0.0 | 0.0 | 0.00 | 0.00 | 0.00 | 85 | 1012.5 |
| 20260510032813 | 48 | 219 | 0.0 | 0.0 | 0.00 | 0.00 | 0.00 | 86 | 1012.6 |
| 20260510032315 | 48 | 205 | 0.0 | 0.0 | 0.00 | 0.00 | 0.00 | 85 | 1012.5 |
| 20260510031817 | 48 | 277 | 0.0 | 0.0 | 0.00 | 0.00 | 0.00 | 85 | 1012.5 |
| 20260510031318 | 49 | 297 | 0.0 | 0.0 | 0.00 | 0.00 | 0.00 | 84 | 1012.4 |
| 20260510030842 | 49 | 269 | 0.0 | 0.0 | 0.00 | 0.00 | 0.00 | 84 | 1012.4 |
| 20260510030324 | 49 | 269 | 0.0 | 0.0 | 0.00 | 0.00 | 0.00 | 83 | 1012.4 |
| 20260510025822 | 50 | 270 | 0.0 | 2.0 | 0.00 | 0.00 | 0.00 | 83 | 1012.3 |
| 20260510025322 | 50 | 284 | 1.0 | 3.0 | 0.00 | 0.00 | 0.00 | 82 | 1012.2 |
| 20260510024825 | 50 | 274 | 0.0 | 3.0 | 0.00 | 0.00 | 0.00 | 82 | 1012.0 |
| 20260510024325 | 50 | 276 | 1.0 | 1.0 | 0.00 | 0.00 | 0.00 | 82 | 1012.0 |
| 20260510023828 | 50 | 283 | 1.0 | 3.0 | 0.00 | 0.00 | 0.00 | 81 | 1011.9 |
| 20260510023350 | 51 | 260 | 1.0 | 3.0 | 0.00 | 0.00 | 0.00 | 81 | 1011.8 |
| 20260510022830 | 50 | 277 | 1.0 | 3.0 | 0.00 | 0.00 | 0.00 | 82 | 1011.8 |
| 20260510022312 | 51 | 283 | 0.0 | 3.0 | 0.00 | 0.00 | 0.00 | 81 | 1011.7 |
| 20260510021815 | 51 | 271 | 0.0 | 2.0 | 0.00 | 0.00 | 0.00 | 80 | 1011.6 |
| 20260510021316 | 51 | 280 | 0.0 | 2.0 | 0.00 | 0.00 | 0.00 | 80 | 1011.6 |
| 20260510020818 | 51 | 283 | 0.0 | 2.0 | 0.00 | 0.00 | 0.00 | 80 | 1011.6 |
| 20260510020320 | 51 | 255 | 1.0 | 2.0 | 0.00 | 0.00 | 0.00 | 80 | 1011.4 |
| 20260510015820 | 51 | 252 | 0.0 | 2.0 | 0.00 | 0.00 | 0.00 | 79 | 1011.3 |
| 20260510015323 | 52 | 299 | 0.0 | 2.0 | 0.00 | 0.00 | 0.00 | 78 | 1011.2 |
| 20260510014805 | 52 | 272 | 1.0 | 2.0 | 0.00 | 0.00 | 0.00 | 78 | 1011.1 |
| 20260510014306 | 52 | 283 | 1.0 | 2.0 | 0.00 | 0.00 | 0.00 | 78 | 1011.0 |
| 20260510013808 | 52 | 265 | 1.0 | 2.0 | 0.00 | 0.00 | 0.00 | 77 | 1010.9 |
| 20260510013310 | 53 | 286 | 1.0 | 3.0 | 0.00 | 0.00 | 0.00 | 75 | 1010.7 |
| 20260510012811 | 53 | 274 | 1.0 | 3.0 | 0.00 | 0.00 | 0.00 | 76 | 1010.7 |
| 20260510012314 | 53 | 270 | 1.0 | 3.0 | 0.00 | 0.00 | 0.00 | 76 | 1010.6 |
| 20260510011815 | 54 | 283 | 1.0 | 2.0 | 0.00 | 0.00 | 0.00 | 75 | 1010.6 |
| 20260510011336 | 54 | 271 | 1.0 | 2.0 | 0.00 | 0.00 | 0.00 | 73 | 1010.5 |
| 20260510010818 | 55 | 260 | 1.0 | 2.0 | 0.00 | 0.00 | 0.00 | 72 | 1010.4 |
| 20260510010321 | 55 | 268 | 1.0 | 2.0 | 0.00 | 0.00 | 0.00 | 71 | 1010.5 |
| 20260510005816 | 56 | 277 | 1.0 | 2.0 | 0.00 | 0.00 | 0.00 | 69 | 1010.4 |
| 20260510005318 | 56 | 258 | 1.0 | 3.0 | 0.00 | 0.00 | 0.00 | 68 | 1010.3 |
| 20260510004820 | 57 | 262 | 1.0 | 3.0 | 0.00 | 0.00 | 0.00 | 67 | 1010.3 |
| 20260510004314 | 57 | 260 | 1.0 | 3.0 | 0.00 | 0.00 | 0.00 | 66 | 1010.2 |
| 20260510003816 | 58 | 288 | 1.0 | 3.0 | 0.00 | 0.00 | 0.00 | 65 | 1010.1 |
| 20260510003317 | 59 | 284 | 1.0 | 3.0 | 0.00 | 0.00 | 0.00 | 63 | 1010.0 |
| 20260510002838 | 60 | 264 | 1.0 | 3.0 | 0.00 | 0.00 | 0.00 | 61 | 1009.9 |
| 20260510002321 | 61 | 259 | 1.0 | 2.0 | 0.00 | 0.00 | 0.00 | 59 | 1009.7 |
| 20260510001822 | 62 | 283 | 0.0 | 2.0 | 0.00 | 0.00 | 0.00 | 56 | 1009.7 |
| 20260510001324 | 64 | 285 | 1.0 | 2.0 | 0.00 | 0.00 | 0.00 | 53 | 1009.5 |
| 20260510000807 | 65 | 268 | 0.0 | 3.0 | 0.00 | 0.00 | 0.00 | 50 | 1009.4 |
| 20260510000311 | 66 | 255 | 1.0 | 5.0 | 0.00 | 0.00 | 0.00 | 47 | 1009.3 |
| 20260509235810 | 67 | 238 | 3.0 | 7.0 | 0.00 | 0.00 | 0.00 | 46 | 1009.2 |
| 20260509235312 | 67 | 252 | 2.0 | 8.0 | 0.00 | 0.00 | 0.00 | 45 | 1009.1 |
| 20260509234813 | 67 | 262 | 3.0 | 7.0 | 0.00 | 0.00 | 0.00 | 45 | 1009.0 |
| 20260509234311 | 68 | 242 | 3.0 | 6.0 | 0.00 | 0.00 | 0.00 | 45 | 1009.0 |
| 20260509233812 | 69 | 250 | 4.0 | 6.0 | 0.00 | 0.00 | 0.00 | 43 | 1008.9 |
| 20260509233315 | 69 | 255 | 3.0 | 8.0 | 0.00 | 0.00 | 0.00 | 43 | 1008.9 |
| 20260509232835 | 69 | 281 | 4.0 | 11.0 | 0.00 | 0.00 | 0.00 | 43 | 1008.9 |
| 20260509232316 | 70 | 271 | 5.0 | 10.0 | 0.00 | 0.00 | 0.00 | 42 | 1009.0 |
| 20260509231820 | 70 | 268 | 4.0 | 9.0 | 0.00 | 0.00 | 0.00 | 41 | 1009.0 |
| 20260509231340 | 71 | 288 | 5.0 | 9.0 | 0.00 | 0.00 | 0.00 | 41 | 1008.9 |
| 20260509230821 | 71 | 246 | 5.0 | 8.0 | 0.00 | 0.00 | 0.00 | 41 | 1009.0 |
| 20260509230323 | 72 | 293 | 3.0 | 9.0 | 0.00 | 0.00 | 0.00 | 42 | 1008.9 |
| 20260509225843 | 72 | 265 | 5.0 | 9.0 | 0.00 | 0.00 | 0.00 | 41 | 1008.9 |
| 20260509225323 | 72 | 269 | 3.0 | 8.0 | 0.00 | 0.00 | 0.00 | 42 | 1008.8 |
| 20260509224822 | 72 | 257 | 3.0 | 10.0 | 0.00 | 0.00 | 0.00 | 42 | 1008.8 |
| 20260509224343 | 71 | 259 | 5.0 | 10.0 | 0.00 | 0.00 | 0.00 | 42 | 1008.8 |
| 20260509223825 | 71 | 271 | 3.0 | 9.0 | 0.00 | 0.00 | 0.00 | 43 | 1008.9 |
| 20260509223307 | 71 | 226 | 6.0 | 9.0 | 0.00 | 0.00 | 0.00 | 43 | 1008.8 |
| 20260509222828 | 72 | 281 | 5.0 | 11.0 | 0.00 | 0.00 | 0.00 | 43 | 1008.8 |
| 20260509222309 | 72 | 257 | 5.0 | 11.0 | 0.00 | 0.00 | 0.00 | 44 | 1008.9 |
| 20260509221827 | 71 | 283 | 5.0 | 9.0 | 0.00 | 0.00 | 0.00 | 44 | 1008.8 |
| 20260509221308 | 72 | 249 | 4.0 | 10.0 | 0.00 | 0.00 | 0.00 | 44 | 1008.8 |
| 20260509220809 | 72 | 266 | 3.0 | 10.0 | 0.00 | 0.00 | 0.00 | 45 | 1008.8 |
| 20260509220332 | 73 | 252 | 5.0 | 10.0 | 0.00 | 0.00 | 0.00 | 43 | 1008.7 |
| 20260509215807 | 74 | 247 | 3.0 | 7.0 | 0.00 | 0.00 | 0.00 | 43 | 1008.6 |
| 20260509215307 | 74 | 251 | 2.0 | 6.0 | 0.00 | 0.00 | 0.00 | 44 | 1008.6 |
| 20260509214810 | 73 | 248 | 4.0 | 7.0 | 0.00 | 0.00 | 0.00 | 43 | 1008.6 |
| 20260509214332 | 72 | 242 | 3.0 | 9.0 | 0.00 | 0.00 | 0.00 | 44 | 1008.6 |
| 20260509213811 | 72 | 283 | 5.0 | 13.0 | 0.00 | 0.00 | 0.00 | 44 | 1008.5 |
| 20260509213313 | 72 | 259 | 4.0 | 13.0 | 0.00 | 0.00 | 0.00 | 44 | 1008.5 |
| 20260509212816 | 72 | 231 | 6.0 | 14.0 | 0.00 | 0.00 | 0.00 | 43 | 1008.5 |
| 20260509212338 | 73 | 235 | 8.0 | 14.0 | 0.00 | 0.00 | 0.00 | 42 | 1008.4 |
| 20260509211840 | 72 | 225 | 4.0 | 9.0 | 0.00 | 0.00 | 0.00 | 43 | 1008.3 |
| 20260509211321 | 72 | 94 | 3.0 | 12.0 | 0.00 | 0.00 | 0.00 | 44 | 1008.4 |
| 20260509210824 | 72 | 260 | 5.0 | 12.0 | 0.00 | 0.00 | 0.00 | 42 | 1008.3 |
| 20260509210325 | 72 | 257 | 5.0 | 11.0 | 0.00 | 0.00 | 0.00 | 44 | 1008.3 |
| 20260509205807 | 72 | 290 | 6.0 | 13.0 | 0.00 | 0.00 | 0.00 | 43 | 1008.2 |
| 20260509205309 | 72 | 259 | 8.0 | 13.0 | 0.00 | 0.00 | 0.00 | 42 | 1008.2 |
| 20260509204811 | 72 | 236 | 3.0 | 10.0 | 0.00 | 0.00 | 0.00 | 44 | 1008.2 |
| 20260509204312 | 72 | 264 | 6.0 | 10.0 | 0.00 | 0.00 | 0.00 | 44 | 1008.3 |
| 20260509203816 | 72 | 270 | 1.0 | 14.0 | 0.00 | 0.00 | 0.00 | 45 | 1008.2 |
| 20260509203318 | 72 | 220 | 6.0 | 14.0 | 0.00 | 0.00 | 0.00 | 45 | 1008.2 |
| 20260509202820 | 73 | 277 | 5.0 | 9.0 | 0.00 | 0.00 | 0.00 | 45 | 1008.1 |
| 20260509202323 | 72 | 255 | 4.0 | 14.0 | 0.00 | 0.00 | 0.00 | 44 | 1008.0 |
| 20260509201846 | 73 | 226 | 6.0 | 14.0 | 0.00 | 0.00 | 0.00 | 44 | 1008.0 |
| 20260509201307 | 73 | 306 | 3.0 | 8.0 | 0.00 | 0.00 | 0.00 | 45 | 1008.0 |
| 20260509200829 | 72 | 242 | 1.0 | 8.0 | 0.00 | 0.00 | 0.00 | 47 | 1007.9 |
| 20260509200309 | 71 | 210 | 3.0 | 12.0 | 0.00 | 0.00 | 0.00 | 45 | 1008.0 |
| 20260509195810 | 71 | 134 | 2.0 | 12.0 | 0.00 | 0.00 | 0.00 | 47 | 1008.0 |
| 20260509195311 | 71 | 234 | 3.0 | 13.0 | 0.00 | 0.00 | 0.00 | 46 | 1008.0 |
| 20260509194814 | 71 | 241 | 6.0 | 13.0 | 0.00 | 0.00 | 0.00 | 45 | 1008.2 |
| 20260509194337 | 71 | 293 | 4.0 | 13.0 | 0.00 | 0.00 | 0.00 | 47 | 1008.1 |
| 20260509193816 | 70 | 281 | 4.0 | 8.0 | 0.00 | 0.00 | 0.00 | 47 | 1008.1 |
| 20260509193339 | 71 | 260 | 4.0 | 12.0 | 0.00 | 0.00 | 0.00 | 47 | 1008.2 |
| 20260509192819 | 71 | 209 | 4.0 | 7.0 | 0.00 | 0.00 | 0.00 | 44 | 1008.2 |
| 20260509192323 | 72 | 224 | 4.0 | 15.0 | 0.00 | 0.00 | 0.00 | 43 | 1008.4 |
| 20260509191824 | 72 | 132 | 6.0 | 15.0 | 0.00 | 0.00 | 0.00 | 42 | 1008.4 |
| 20260509191306 | 72 | 283 | 4.0 | 11.0 | 0.00 | 0.00 | 0.00 | 46 | 1008.4 |
| 20260509190828 | 71 | 207 | 6.0 | 11.0 | 0.00 | 0.00 | 0.00 | 42 | 1008.6 |
| 20260509190309 | 72 | 259 | 4.0 | 9.0 | 0.00 | 0.00 | 0.00 | 44 | 1008.6 |
| 20260509185807 | 72 | 270 | 3.0 | 15.0 | 0.00 | 0.00 | 0.00 | 45 | 1008.6 |
| 20260509185329 | 72 | 129 | 6.0 | 15.0 | 0.00 | 0.00 | 0.00 | 45 | 1008.6 |
| 20260509184809 | 71 | 248 | 3.0 | 9.0 | 0.00 | 0.00 | 0.00 | 45 | 1008.6 |
| 20260509184311 | 71 | 264 | 5.0 | 9.0 | 0.00 | 0.00 | 0.00 | 46 | 1008.7 |
| 20260509183813 | 70 | 269 | 4.0 | 9.0 | 0.00 | 0.00 | 0.00 | 49 | 1008.8 |
| 20260509183316 | 72 | 134 | 5.0 | 9.0 | 0.00 | 0.00 | 0.00 | 46 | 1008.8 |
| 20260509182817 | 71 | 224 | 2.0 | 8.0 | 0.00 | 0.00 | 0.00 | 44 | 1008.8 |
| 20260509182318 | 70 | 198 | 4.0 | 10.0 | 0.00 | 0.00 | 0.00 | 46 | 1008.9 |
| 20260509181819 | 70 | 250 | 5.0 | 13.0 | 0.00 | 0.00 | 0.00 | 44 | 1009.0 |
| 20260509181343 | 70 | 255 | 8.0 | 13.0 | 0.00 | 0.00 | 0.00 | 45 | 1009.1 |
| 20260509180824 | 70 | 77 | 5.0 | 12.0 | 0.00 | 0.00 | 0.00 | 47 | 1008.9 |
| 20260509180324 | 70 | 25 | 8.0 | 12.0 | 0.00 | 0.00 | 0.00 | 45 | 1009.0 |
| 20260509175823 | 70 | 275 | 4.0 | 12.0 | 0.00 | 0.00 | 0.00 | 46 | 1009.0 |
| 20260509175325 | 70 | 243 | 3.0 | 11.0 | 0.00 | 0.00 | 0.00 | 48 | 1009.1 |
| 20260509174824 | 69 | 255 | 2.0 | 8.0 | 0.00 | 0.00 | 0.00 | 48 | 1009.1 |
| 20260509174326 | 68 | 243 | 3.0 | 8.0 | 0.00 | 0.00 | 0.00 | 47 | 1009.2 |
| 20260509173809 | 68 | 206 | 5.0 | 9.0 | 0.00 | 0.00 | 0.00 | 48 | 1009.2 |
| 20260509173311 | 68 | 107 | 3.0 | 6.0 | 0.00 | 0.00 | 0.00 | 50 | 1009.2 |
| 20260509172813 | 68 | 232 | 2.0 | 10.0 | 0.00 | 0.00 | 0.00 | 51 | 1009.3 |
| 20260509172315 | 68 | 240 | 6.0 | 10.0 | 0.00 | 0.00 | 0.00 | 49 | 1009.5 |
| 20260509171816 | 68 | 278 | 2.0 | 5.0 | 0.00 | 0.00 | 0.00 | 52 | 1009.5 |
| 20260509171337 | 67 | 238 | 3.0 | 7.0 | 0.00 | 0.00 | 0.00 | 52 | 1009.6 |
| 20260509170818 | 67 | 265 | 4.0 | 8.0 | 0.00 | 0.00 | 0.00 | 51 | 1009.7 |
| 20260509170321 | 67 | 230 | 5.0 | 12.0 | 0.00 | 0.00 | 0.00 | 53 | 1009.8 |
| 20260509165819 | 67 | 239 | 5.0 | 12.0 | 0.00 | 0.00 | 0.00 | 54 | 1009.9 |
| 20260509165320 | 67 | 113 | 2.0 | 4.0 | 0.00 | 0.00 | 0.00 | 54 | 1009.8 |
| 20260509164821 | 67 | 208 | 1.0 | 8.0 | 0.00 | 0.00 | 0.00 | 54 | 1009.7 |
| 20260509164323 | 67 | 224 | 2.0 | 7.0 | 0.00 | 0.00 | 0.00 | 56 | 1009.7 |
| 20260509163825 | 66 | 166 | 2.0 | 9.0 | 0.00 | 0.00 | 0.00 | 55 | 1009.7 |
| 20260509163307 | 67 | 264 | 2.0 | 9.0 | 0.00 | 0.00 | 0.00 | 53 | 1009.7 |
| 20260509162810 | 67 | 114 | 4.0 | 7.0 | 0.00 | 0.00 | 0.00 | 53 | 1009.7 |
| 20260509162312 | 67 | 274 | 3.0 | 7.0 | 0.00 | 0.00 | 0.00 | 52 | 1009.7 |
| 20260509161813 | 67 | 191 | 3.0 | 10.0 | 0.00 | 0.00 | 0.00 | 54 | 1009.8 |
| 20260509161315 | 66 | 165 | 5.0 | 12.0 | 0.00 | 0.00 | 0.00 | 55 | 1009.9 |
| 20260509160816 | 66 | 265 | 6.0 | 12.0 | 0.00 | 0.00 | 0.00 | 55 | 1009.9 |
| 20260509160318 | 67 | 257 | 4.0 | 9.0 | 0.00 | 0.00 | 0.00 | 56 | 1009.9 |
| 20260509155816 | 66 | 273 | 4.0 | 9.0 | 0.00 | 0.00 | 0.00 | 57 | 1009.8 |
| 20260509155316 | 66 | 275 | 5.0 | 9.0 | 0.00 | 0.00 | 0.00 | 60 | 1009.9 |
| 20260509154818 | 66 | 210 | 4.0 | 9.0 | 0.00 | 0.00 | 0.00 | 57 | 1010.0 |
| 20260509154338 | 65 | 242 | 2.0 | 6.0 | 0.00 | 0.00 | 0.00 | 60 | 1010.2 |
| 20260509153839 | 65 | 233 | 3.0 | 11.0 | 0.00 | 0.00 | 0.00 | 60 | 1010.2 |
| 20260509153319 | 64 | 188 | 6.0 | 11.0 | 0.00 | 0.00 | 0.00 | 61 | 1010.1 |
| 20260509152839 | 64 | 248 | 4.0 | 11.0 | 0.00 | 0.00 | 0.00 | 60 | 1010.2 |
| 20260509152321 | 64 | 261 | 6.0 | 13.0 | 0.00 | 0.00 | 0.00 | 60 | 1010.2 |
| 20260509151821 | 64 | 226 | 6.0 | 13.0 | 0.00 | 0.00 | 0.00 | 61 | 1010.1 |
| 20260509151324 | 64 | 211 | 2.0 | 11.0 | 0.00 | 0.00 | 0.00 | 62 | 1010.1 |
| 20260509150808 | 64 | 191 | 3.0 | 9.0 | 0.00 | 0.00 | 0.00 | 61 | 1010.1 |
| 20260509150308 | 64 | 88 | 4.0 | 9.0 | 0.00 | 0.00 | 0.00 | 62 | 1010.2 |
| 20260509145820 | 64 | 243 | 4.0 | 11.0 | 0.00 | 0.00 | 0.00 | 60 | 1010.2 |
| 20260509145342 | 64 | 240 | 4.0 | 11.0 | 0.00 | 0.00 | 0.00 | 62 | 1010.2 |
| 20260509144823 | 64 | 240 | 2.0 | 9.0 | 0.00 | 0.00 | 0.00 | 62 | 1010.1 |
| 20260509144327 | 64 | 208 | 4.0 | 7.0 | 0.00 | 0.00 | 0.00 | 61 | 1010.1 |
| 20260509143827 | 63 | 306 | 1.0 | 9.0 | 0.00 | 0.00 | 0.00 | 67 | 1010.1 |
| 20260509143309 | 62 | 139 | 3.0 | 9.0 | 0.00 | 0.00 | 0.00 | 66 | 1010.3 |
| 20260509142811 | 62 | 114 | 3.0 | 7.0 | 0.00 | 0.00 | 0.00 | 68 | 1010.0 |
| 20260509142333 | 61 | 101 | 4.0 | 10.0 | 0.00 | 0.00 | 0.00 | 68 | 1009.9 |
| 20260509141814 | 60 | 108 | 5.0 | 10.0 | 0.00 | 0.00 | 0.00 | 68 | 1010.1 |
| 20260509141314 | 60 | 123 | 4.0 | 6.0 | 0.00 | 0.00 | 0.00 | 70 | 1010.1 |
| 20260509140816 | 59 | 119 | 3.0 | 8.0 | 0.00 | 0.00 | 0.00 | 69 | 1010.1 |
| 20260509140319 | 59 | 117 | 4.0 | 8.0 | 0.00 | 0.00 | 0.00 | 70 | 1010.1 |
| 20260509135837 | 58 | 106 | 2.0 | 4.0 | 0.00 | 0.00 | 0.00 | 72 | 1010.2 |
| 20260509135318 | 57 | 84 | 2.0 | 6.0 | 0.00 | 0.00 | 0.00 | 75 | 1010.4 |
| 20260509134821 | 57 | 89 | 3.0 | 6.0 | 0.00 | 0.00 | 0.00 | 75 | 1010.5 |
| 20260509134322 | 56 | 136 | 2.0 | 4.0 | 0.00 | 0.00 | 0.00 | 80 | 1010.6 |
| 20260509133824 | 55 | 127 | 1.0 | 3.0 | 0.00 | 0.00 | 0.00 | 82 | 1010.7 |
| 20260509133344 | 54 | 162 | 1.0 | 3.0 | 0.00 | 0.00 | 0.00 | 81 | 1011.0 |
| 20260509132824 | 52 | 96 | 1.0 | 3.0 | 0.00 | 0.00 | 0.00 | 83 | 1011.1 |
| 20260509132346 | 51 | 94 | 1.0 | 4.0 | 0.00 | 0.00 | 0.00 | 83 | 1011.3 |
| 20260509131825 | 51 | 95 | 2.0 | 4.0 | 0.00 | 0.00 | 0.00 | 85 | 1011.3 |
| 20260509131327 | 50 | 103 | 0.0 | 1.0 | 0.00 | 0.00 | 0.00 | 85 | 1011.4 |
| 20260509130828 | 49 | 102 | 1.0 | 1.0 | 0.00 | 0.00 | 0.00 | 86 | 1011.5 |
| 20260509130309 | 48 | 99 | 0.0 | 2.0 | 0.00 | 0.00 | 0.00 | 87 | 1011.6 |
| 20260509125827 | 48 | 103 | 1.0 | 2.0 | 0.00 | 0.00 | 0.00 | 87 | 1011.7 |
| 20260509124849 | 47 | 96 | 0.0 | 2.0 | 0.00 | 0.00 | 0.00 | 88 | 1011.7 |
| 20260509124329 | 46 | 110 | 1.0 | 2.0 | 0.00 | 0.00 | 0.00 | 89 | 1011.7 |
| 20260509123811 | 46 | 101 | 1.0 | 2.0 | 0.00 | 0.00 | 0.00 | 88 | 1011.7 |
| 20260509123333 | 45 | 84 | 0.0 | 0.0 | 0.00 | 0.00 | 0.00 | 89 | 1011.8 |
| 20260509122814 | 45 | 116 | 0.0 | 1.0 | 0.00 | 0.00 | 0.00 | 90 | 1011.7 |
| 20260509122314 | 45 | 117 | 0.0 | 1.0 | 0.00 | 0.00 | 0.00 | 90 | 1011.7 |
| 20260509121836 | 44 | 117 | 0.0 | 2.0 | 0.00 | 0.00 | 0.00 | 90 | 1011.8 |
| 20260509121318 | 44 | 120 | 1.0 | 2.0 | 0.00 | 0.00 | 0.00 | 90 | 1011.7 |
| 20260509120840 | 44 | 89 | 0.0 | 1.0 | 0.00 | 0.00 | 0.00 | 92 | 1011.7 |
| 20260509120321 | 43 | 98 | 0.0 | 0.0 | 0.00 | 0.00 | 0.00 | 93 | 1011.7 |
| 20260509115821 | 43 | 98 | 0.0 | 0.0 | 0.00 | 0.00 | 0.00 | 93 | 1011.7 |
| 20260509115322 | 42 | 98 | 0.0 | 1.0 | 0.00 | 0.00 | 0.00 | 94 | 1011.8 |
| 20260509114826 | 42 | 98 | 0.0 | 1.0 | 0.00 | 0.00 | 0.00 | 94 | 1011.7 |
| 20260509114326 | 42 | 98 | 0.0 | 1.0 | 0.00 | 0.00 | 0.00 | 95 | 1011.8 |
| 20260509113809 | 41 | 98 | 0.0 | 1.0 | 0.00 | 0.00 | 0.00 | 95 | 1011.8 |
| 20260509113311 | 41 | 97 | 0.0 | 0.0 | 0.00 | 0.00 | 0.00 | 96 | 1011.7 |
| 20260509112834 | 40 | 97 | 0.0 | 0.0 | 0.00 | 0.00 | 0.00 | 96 | 1011.6 |
| 20260509112334 | 40 | 97 | 0.0 | 0.0 | 0.00 | 0.00 | 0.00 | 96 | 1011.6 |
| 20260509111814 | 40 | 97 | 0.0 | 1.0 | 0.00 | 0.00 | 0.00 | 96 | 1011.6 |
| 20260509111315 | 39 | 100 | 0.0 | 1.0 | 0.00 | 0.00 | 0.00 | 96 | 1011.6 |
| 20260509110818 | 39 | 91 | 0.0 | 0.0 | 0.00 | 0.00 | 0.00 | 96 | 1011.6 |
| 20260509110341 | 39 | 91 | 0.0 | 0.0 | 0.00 | 0.00 | 0.00 | 97 | 1011.6 |
| 20260509105842 | 39 | 91 | 0.0 | 0.0 | 0.00 | 0.00 | 0.00 | 97 | 1011.6 |
| 20260509105322 | 39 | 91 | 0.0 | 0.0 | 0.00 | 0.00 | 0.00 | 97 | 1011.6 |
| 20260509104824 | 39 | 95 | 0.0 | 0.0 | 0.00 | 0.00 | 0.00 | 97 | 1011.6 |
| 20260509104323 | 39 | 94 | 0.0 | 0.0 | 0.00 | 0.00 | 0.00 | 96 | 1011.5 |
| 20260509103846 | 39 | 94 | 0.0 | 0.0 | 0.00 | 0.00 | 0.00 | 96 | 1011.4 |
| 20260509103346 | 39 | 94 | 0.0 | 1.0 | 0.00 | 0.00 | 0.00 | 96 | 1011.4 |
| 20260509102827 | 39 | 94 | 0.0 | 1.0 | 0.00 | 0.00 | 0.00 | 96 | 1011.5 |
| 20260509102329 | 39 | 93 | 0.0 | 0.0 | 0.00 | 0.00 | 0.00 | 96 | 1011.5 |
| 20260509101810 | 39 | 92 | 0.0 | 0.0 | 0.00 | 0.00 | 0.00 | 96 | 1011.6 |
| 20260509101333 | 39 | 92 | 0.0 | 0.0 | 0.00 | 0.00 | 0.00 | 96 | 1011.7 |
| 20260509100814 | 39 | 92 | 0.0 | 1.0 | 0.00 | 0.00 | 0.00 | 96 | 1011.6 |
| 20260509100313 | 39 | 89 | 0.0 | 0.0 | 0.00 | 0.00 | 0.00 | 96 | 1011.7 |
| 20260509095813 | 39 | 80 | 0.0 | 0.0 | 0.00 | 0.00 | 0.00 | 96 | 1011.6 |
| 20260509095315 | 39 | 99 | 0.0 | 0.0 | 0.00 | 0.00 | 0.00 | 96 | 1011.6 |
| 20260509094817 | 39 | 99 | 0.0 | 1.0 | 0.00 | 0.00 | 0.00 | 97 | 1011.6 |
| 20260509094319 | 39 | 104 | 0.0 | 1.0 | 0.00 | 0.00 | 0.00 | 96 | 1011.6 |
| 20260509093820 | 39 | 103 | 0.0 | 0.0 | 0.00 | 0.00 | 0.00 | 96 | 1011.7 |
| 20260509093321 | 39 | 91 | 0.0 | 0.0 | 0.00 | 0.00 | 0.00 | 96 | 1011.6 |
| 20260509092822 | 39 | 91 | 0.0 | 0.0 | 0.00 | 0.00 | 0.00 | 96 | 1011.6 |
| 20260509092322 | 39 | 91 | 0.0 | 0.0 | 0.00 | 0.00 | 0.00 | 96 | 1011.6 |
| 20260509091823 | 39 | 91 | 0.0 | 0.0 | 0.00 | 0.00 | 0.00 | 96 | 1011.7 |
| 20260509091346 | 39 | 91 | 0.0 | 0.0 | 0.00 | 0.00 | 0.00 | 95 | 1011.7 |
| 20260509090828 | 39 | 91 | 0.0 | 0.0 | 0.00 | 0.00 | 0.00 | 95 | 1011.7 |
| 20260509090329 | 39 | 91 | 0.0 | 1.0 | 0.00 | 0.00 | 0.00 | 94 | 1011.8 |
| 20260509085810 | 39 | 94 | 0.0 | 1.0 | 0.00 | 0.00 | 0.00 | 93 | 1011.8 |
| 20260509085311 | 40 | 252 | 0.0 | 0.0 | 0.00 | 0.00 | 0.00 | 94 | 1011.8 |
| 20260509084812 | 40 | 252 | 0.0 | 0.0 | 0.00 | 0.00 | 0.00 | 94 | 1011.8 |
| 20260509084336 | 40 | 252 | 0.0 | 0.0 | 0.00 | 0.00 | 0.00 | 94 | 1011.7 |
| 20260509083816 | 40 | 252 | 0.0 | 0.0 | 0.00 | 0.00 | 0.00 | 94 | 1011.8 |
| 20260509083319 | 40 | 249 | 0.0 | 0.0 | 0.00 | 0.00 | 0.00 | 94 | 1011.8 |
| 20260509082822 | 40 | 250 | 0.0 | 0.0 | 0.00 | 0.00 | 0.00 | 94 | 1011.8 |
| 20260509082324 | 40 | 280 | 0.0 | 0.0 | 0.00 | 0.00 | 0.00 | 93 | 1011.8 |
| 20260509081826 | 41 | 191 | 0.0 | 0.0 | 0.00 | 0.00 | 0.00 | 93 | 1011.7 |
| 20260509081348 | 41 | 88 | 0.0 | 0.0 | 0.00 | 0.00 | 0.00 | 93 | 1011.8 |
| 20260509080809 | 41 | 87 | 0.0 | 0.0 | 0.00 | 0.00 | 0.00 | 93 | 1011.8 |
| 20260509080312 | 41 | 87 | 0.0 | 0.0 | 0.00 | 0.00 | 0.00 | 93 | 1011.8 |
| 20260509075832 | 41 | 87 | 0.0 | 0.0 | 0.00 | 0.00 | 0.00 | 93 | 1011.8 |
| 20260509075313 | 41 | 87 | 0.0 | 0.0 | 0.00 | 0.00 | 0.00 | 93 | 1011.8 |
| 20260509074833 | 42 | 87 | 0.0 | 0.0 | 0.00 | 0.00 | 0.00 | 93 | 1011.8 |
| 20260509074314 | 42 | 81 | 0.0 | 0.0 | 0.00 | 0.00 | 0.00 | 93 | 1011.9 |
| 20260509073816 | 42 | 113 | 0.0 | 0.0 | 0.00 | 0.00 | 0.00 | 93 | 1011.9 |
| 20260509073317 | 42 | 113 | 0.0 | 0.0 | 0.00 | 0.00 | 0.00 | 93 | 1012.0 |
| 20260509072820 | 41 | 113 | 0.0 | 0.0 | 0.00 | 0.00 | 0.00 | 92 | 1012.1 |
| 20260509072320 | 41 | 113 | 0.0 | 0.0 | 0.00 | 0.00 | 0.00 | 92 | 1012.1 |
| 20260509071821 | 41 | 113 | 0.0 | 0.0 | 0.00 | 0.00 | 0.00 | 92 | 1012.2 |
| 20260509071339 | 41 | 279 | 0.0 | 0.0 | 0.00 | 0.00 | 0.00 | 93 | 1012.3 |
| 20260509070821 | 41 | 280 | 0.0 | 0.0 | 0.00 | 0.00 | 0.00 | 93 | 1012.4 |
| 20260509070323 | 40 | 265 | 0.0 | 0.0 | 0.00 | 0.00 | 0.00 | 94 | 1012.3 |
| 20260509065841 | 40 | 281 | 0.0 | 0.0 | 0.00 | 0.00 | 0.00 | 94 | 1012.4 |
| 20260509065341 | 40 | 282 | 0.0 | 0.0 | 0.00 | 0.00 | 0.00 | 93 | 1012.4 |
| 20260509064823 | 40 | 283 | 0.0 | 0.0 | 0.00 | 0.00 | 0.00 | 93 | 1012.3 |
| 20260509064326 | 40 | 283 | 0.0 | 0.0 | 0.00 | 0.00 | 0.00 | 92 | 1012.4 |
| 20260509063828 | 40 | 283 | 0.0 | 0.0 | 0.00 | 0.00 | 0.00 | 91 | 1012.4 |
| 20260509063329 | 41 | 283 | 0.0 | 0.0 | 0.00 | 0.00 | 0.00 | 90 | 1012.5 |
| 20260509062810 | 41 | 283 | 0.0 | 0.0 | 0.00 | 0.00 | 0.00 | 92 | 1012.6 |
| 20260509062312 | 41 | 283 | 0.0 | 0.0 | 0.00 | 0.00 | 0.00 | 92 | 1012.7 |
| 20260509061835 | 40 | 283 | 0.0 | 0.0 | 0.00 | 0.00 | 0.00 | 92 | 1012.7 |
| 20260509061316 | 40 | 283 | 0.0 | 0.0 | 0.00 | 0.00 | 0.00 | 92 | 1012.8 |
| 20260509060819 | 41 | 262 | 0.0 | 0.0 | 0.00 | 0.00 | 0.00 | 92 | 1012.8 |
| 20260509060321 | 41 | 203 | 0.0 | 0.0 | 0.00 | 0.00 | 0.00 | 92 | 1012.8 |
| 20260509055818 | 40 | 203 | 0.0 | 0.0 | 0.00 | 0.00 | 0.00 | 92 | 1012.7 |
| 20260509055320 | 40 | 199 | 0.0 | 0.0 | 0.00 | 0.00 | 0.00 | 92 | 1012.7 |
| 20260509054842 | 41 | 148 | 0.0 | 0.0 | 0.00 | 0.00 | 0.00 | 91 | 1012.8 |
| 20260509054325 | 41 | 146 | 0.0 | 0.0 | 0.00 | 0.00 | 0.00 | 91 | 1012.8 |
| 20260509053827 | 41 | 146 | 0.0 | 0.0 | 0.00 | 0.00 | 0.00 | 91 | 1012.8 |
| 20260509053349 | 42 | 146 | 0.0 | 0.0 | 0.00 | 0.00 | 0.00 | 89 | 1012.8 |
| 20260509052829 | 42 | 258 | 0.0 | 0.0 | 0.00 | 0.00 | 0.00 | 89 | 1012.9 |
| 20260509052330 | 42 | 257 | 0.0 | 0.0 | 0.00 | 0.00 | 0.00 | 89 | 1013.0 |
| 20260509051812 | 42 | 259 | 0.0 | 0.0 | 0.00 | 0.00 | 0.00 | 90 | 1013.1 |
| 20260509051315 | 42 | 231 | 0.0 | 0.0 | 0.00 | 0.00 | 0.00 | 89 | 1013.1 |
| 20260509050817 | 43 | 231 | 0.0 | 2.0 | 0.00 | 0.00 | 0.00 | 89 | 1013.0 |
| 20260509050340 | 43 | 262 | 1.0 | 2.0 | 0.00 | 0.00 | 0.00 | 89 | 1012.9 |
| 20260509045818 | 43 | 295 | 0.0 | 0.0 | 0.00 | 0.00 | 0.00 | 89 | 1012.9 |
| 20260509045319 | 43 | 292 | 0.0 | 0.0 | 0.00 | 0.00 | 0.00 | 89 | 1012.9 |
| 20260509044822 | 43 | 293 | 0.0 | 0.0 | 0.00 | 0.00 | 0.00 | 88 | 1012.9 |
| 20260509044323 | 44 | 293 | 0.0 | 0.0 | 0.00 | 0.00 | 0.00 | 87 | 1012.8 |
| 20260509043826 | 44 | 293 | 0.0 | 2.0 | 0.00 | 0.00 | 0.00 | 87 | 1012.8 |